[[{"header":{"parameterUnit":"m.s-1","parameterCategory":1,"la1":30.2991,"la2":30.254,"lo1":-89.0895,"lo2":-89.0444,"dy":0.0017,"dx":0.0017,"nx":28,"ny":28,"refTime":"2024-05-12T09:00:00:Z","depth":0,"parameterNumber":2,"parameterNumberName":"U-component_of_WINDS"},"data":[0,0,0,0,0,0,0,0,0,0,0,0,0,0,0,0,0,0,0,0,0,0,0,0,0,0,0,0,0,0,0,0,0,0,0,0,0,0,0,0,0,0,0,0,0,0,0,0,0,0,0,0,0,0,0,0,0,0,-4.7422,-4.7421,0,-4.735,-4.7349,-4.7348,-4.7188,-4.7185,-4.7182,-4.7178,-4.711,-4.7111,-4.7112,0,0,0,0,0,0,0,0,0,0,0,0,0,-4.7427,-4.7427,-4.7422,-4.7421,-4.742,-4.735,-4.7349,-4.7348,-4.7189,-4.7185,-4.7181,-4.7177,-4.7109,-4.7111,-4.7112,0,0,0,0,0,0,0,0,0,0,0,0,0,-4.7397,-4.7428,-4.7422,-4.7332,-4.7323,-4.735,-4.7349,-4.7348,-4.719,-4.7185,-4.718,-4.7175,-4.7109,-4.711,-4.7112,-4.7222,0,0,-4.7118,-4.7119,0,0,0,0,0,0,0,0,-4.7399,-4.7397,-4.7346,-4.7338,-4.7328,-4.7273,-4.7325,-4.7306,-4.7191,-4.724,-4.7178,-4.7173,-4.7168,-4.7165,-4.7162,-4.7219,-4.7216,-4.7118,-4.7119,-4.712,-4.712,0,0,0,0,0,0,0,-4.7401,-4.7399,-4.7393,-4.7346,-4.7335,-4.7297,-4.7287,-4.7321,-4.7233,-4.7236,-4.7224,-4.7217,-4.7162,-4.7161,-4.7159,-4.7215,-4.7118,-4.712,-4.7121,-4.7121,-4.736,-4.7365,0,0,0,0,0,0,-4.7415,-4.7402,-4.7396,-4.7391,-4.7352,-4.7301,-4.729,-4.7296,-4.7232,-4.7218,-4.7222,-4.721,-4.716,-4.7158,-4.7156,-4.7281,-4.712,-4.7122,-4.7123,-4.7355,-4.7362,-4.7367,0,0,0,0,0,0,-4.7416,-4.7416,-4.7398,-4.7393,-4.7388,-4.7306,-4.7314,-4.7297,-4.7295,-4.7221,-4.7205,-4.7236,-4.7156,-4.7154,-4.7207,-4.7277,-4.7123,-4.7124,-4.7349,-4.7357,-4.7364,-4.7532,0,0,0,0,0,0,-4.7417,-4.7418,-4.7457,-4.7395,-4.7389,-4.7449,-4.7318,-4.7299,-4.7298,-4.7282,-4.723,-4.7217,-4.7152,-4.7205,-4.7209,-4.7276,-4.7126,-4.7342,-4.7353,-4.7362,-4.752,-4.7545,-4.7566,0,0,0,0,0,-4.7418,-4.7508,-4.746,-4.746,-4.7436,-4.7453,-4.745,-4.7372,-4.7304,-4.7344,-4.7297,-4.7219,-4.7269,-4.7212,-4.7215,-4.7284,-4.7338,-4.735,-4.7361,-4.751,-4.754,-4.7566,0,0,0,0,0,0,-4.7581,-4.7498,-4.7444,-4.7516,-4.7493,-4.7426,-4.7474,-4.7406,-4.7402,-4.7388,-4.7293,-4.7283,-4.7349,-4.7322,-4.726,-4.7388,-4.7291,-4.7304,-4.7403,-4.7431,-4.7454,-4.7458,-4.7127,0,0,0,0,0,-4.7625,-4.7644,-4.7572,-4.7643,-4.7634,-4.7557,-4.7561,-4.7503,-4.7476,-4.7465,-4.7422,-4.74,-4.741,-4.7419,-4.7425,-4.7516,-4.7503,-4.7566,-4.7589,-4.7608,-4.762,-4.7667,-4.7694,-4.7406,-4.7406,-4.7406,0,0,-4.7717,-4.7674,-4.7692,-4.7675,-4.7649,-4.7673,-4.7549,-4.7579,-4.7596,-4.747,-4.7517,-4.7486,-4.7455,-4.7528,-4.7558,-4.7507,-4.7697,-4.7623,-4.7639,-4.764,-4.7682,-4.7709,-4.7733,-4.7414,-4.7413,-4.7411,0,0,-4.7896,-4.7866,-4.7921,-4.7899,-4.7863,-4.7811,-4.7825,-4.7769,-4.7743,-4.7788,-4.7695,-4.7715,-4.7735,-4.7717,-4.7711,-4.7887,-4.7815,-4.7892,-4.8011,-4.8058,-4.8081,-4.81,-4.8163,-4.8187,-4.7904,-4.7905,-4.7905,0,-4.8015,-4.8045,-4.7959,-4.7995,-4.7991,-4.7878,-4.7935,-4.7918,-4.7887,-4.7887,-4.7831,-4.7855,-4.7826,-4.7893,-4.7937,-4.7935,-4.7949,-4.7896,-4.8084,-4.8103,-4.812,-4.8179,-4.8203,-4.7914,-4.7913,-4.7912,-4.7911,0,-4.8193,-4.8216,-4.8266,-4.8237,-4.8238,-4.8285,-4.8209,-4.8221,-4.8164,-4.812,-4.8169,-4.8131,-4.8127,-4.814,-4.8085,-4.82,-4.817,-4.8101,-4.8001,-4.8159,-4.8212,-4.8234,-4.7928,-4.7924,-4.7921,-4.7919,0,0,-4.847,-4.8394,-4.8414,-4.84,-4.8353,-4.837,-4.8413,-4.8408,-4.8421,-4.8404,-4.8438,-4.846,-4.8395,-4.8389,-4.8331,-4.8373,-4.8515,-4.8298,-4.8296,-4.8339,-4.8641,-4.8692,-4.872,-4.8468,-4.8472,-4.8475,-4.8643,0,-4.8637,-4.8703,-4.8629,-4.8712,-4.8733,-4.8627,-4.8665,-4.8641,-4.8602,-4.8615,-4.8572,-4.8588,-4.8502,-4.8497,-4.8534,-4.849,-4.8574,-4.8477,-4.85,-4.8502,-4.8509,-4.8748,-4.8802,-4.8962,-4.8664,-4.8667,-4.867,0,-4.884,-4.8831,-4.8916,-4.8865,-4.8871,-4.8906,-4.8896,-4.891,-4.8883,-4.8851,-4.8845,-4.8776,-4.8816,-4.8721,-4.8776,-4.8712,-4.8717,-4.8698,-4.8702,-4.87,-4.8594,-4.8752,-4.9011,-4.9035,-4.8702,-4.8699,-4.8697,0,-4.9033,-4.9043,-4.9095,-4.9087,-4.9028,-4.9056,-4.9033,-4.9,-4.9003,-4.8996,-4.8997,-4.8996,-4.8995,-4.8997,-4.893,-4.8867,-4.8995,-4.8893,-4.897,-4.8972,-4.9,-4.8999,-4.9264,-4.9007,-4.9006,-4.9006,-4.9006,0,-4.9226,-4.9282,-4.9181,-4.9213,-4.9273,-4.9189,-4.9252,-4.9219,-4.9192,-4.9217,-4.9127,-4.9153,-4.9064,-4.9081,-4.903,-4.9084,-4.9085,-4.9061,-4.9047,-4.9068,-4.9072,-4.907,-4.9056,-4.9012,-4.9011,-4.901,-4.9009,0,-4.9451,-4.9385,-4.9435,-4.9376,-4.9363,-4.941,-4.9361,-4.9389,-4.9345,-4.9378,-4.9381,-4.9312,-4.9328,-4.9262,-4.9267,-4.9232,-4.9313,-4.9281,-4.9322,-4.9312,-4.9392,-4.9386,-4.9664,-4.9697,-4.942,-4.9423,-4.9425,0,-4.9577,-4.9618,-4.9564,-4.9573,-4.9555,-4.9572,-4.9574,-4.9495,-4.9501,-4.9474,-4.9507,-4.9515,-4.9517,-4.9548,-4.9499,-4.9503,-4.947,-4.9567,-4.947,-4.9491,-4.9471,-4.9468,-4.9472,-4.9587,-4.9591,-4.9593,-4.9596,0,-4.981,-4.9776,-4.9781,-4.9777,-4.9782,-4.9775,-4.9761,-4.9775,-4.9689,-4.9702,-4.9716,-4.9718,-4.9724,-4.9734,-4.9728,-4.9706,-4.9638,-4.9627,-4.9645,-4.9667,-4.9689,-4.9678,-4.9376,-4.9621,-4.9618,-4.9616,-4.9615,-4.9614,-4.9988,-5.002,-4.9987,-4.9997,-4.9979,-4.9969,-4.9993,-4.9952,-4.9962,-4.9959,-4.9912,-4.9936,-4.991,-4.9895,-4.9881,-4.99,-4.9854,-4.9881,-4.9887,-4.9895,-4.9908,-4.9688,-4.9899,-4.9898,-4.9898,-4.9897,-4.9896,0,-5.0215,-5.0189,-5.0199,-5.0183,-5.0192,-5.0126,-5.0109,-5.0121,-5.0143,-5.0124,-5.0128,-5.0146,-5.0156,-5.0109,-5.0113,-5.0138,-5.0107,-5.0142,-5.0138,-5.0135,-4.9949,-4.9933,-5.0167,-5.0167,-5.0167,-5.0167,-5.0167,-5.0167,-5.0334,-5.0383,-5.0346,-5.0387,-5.0361,-5.0383,-5.0379,-5.0371,-5.0355,-5.0379,-5.0386,-5.0355,-5.0325,-5.0327,-5.0334,-5.032,-5.0325,-5.0371,-5.0347,-5.0174,-5.0148,-5.0122,-5.0107,-5.0374,-5.0374,-5.0531,-5.0532,-5.0533]},{"header":{"parameterUnit":"m.s-1","parameterCategory":1,"la1":30.2991,"la2":30.254,"lo1":-89.0895,"lo2":-89.0444,"dy":0.0017,"dx":0.0017,"nx":28,"ny":28,"refTime":"2024-05-12T09:00:00:Z","depth":0,"parameterNumber":3,"parameterNumberName":"V-component_of_WINDS"},"data":[0,0,0,0,0,0,0,0,0,0,0,0,0,0,0,0,0,0,0,0,0,0,0,0,0,0,0,0,0,0,0,0,0,0,0,0,0,0,0,0,0,0,0,0,0,0,0,0,0,0,0,0,0,0,0,0,0,0,1.5139,1.514,0,1.5162,1.5162,1.5163,1.5192,1.5192,1.5193,1.5193,1.5214,1.5214,1.5214,0,0,0,0,0,0,0,0,0,0,0,0,0,1.5119,1.5119,1.5139,1.514,1.514,1.5162,1.5162,1.5163,1.5191,1.5192,1.5193,1.5193,1.5213,1.5214,1.5214,0,0,0,0,0,0,0,0,0,0,0,0,0,1.5133,1.5119,1.5139,1.5157,1.5159,1.5162,1.5162,1.5163,1.5191,1.5192,1.5193,1.5193,1.5213,1.5214,1.5214,1.5201,0,0,1.5214,1.5214,0,0,0,0,0,0,0,0,1.5132,1.5134,1.5154,1.5156,1.5158,1.5175,1.5163,1.5175,1.5191,1.5179,1.5193,1.5194,1.52,1.5201,1.5204,1.5201,1.5202,1.5214,1.5214,1.5214,1.5214,0,0,0,0,0,0,0,1.5131,1.5133,1.5148,1.5154,1.5157,1.5163,1.5166,1.5165,1.5185,1.518,1.5182,1.5185,1.5201,1.5204,1.5204,1.5203,1.5214,1.5214,1.5214,1.5215,1.5192,1.5191,0,0,0,0,0,0,1.5128,1.5132,1.5148,1.5149,1.5147,1.5163,1.5166,1.5169,1.5185,1.5188,1.5184,1.5186,1.5203,1.5204,1.5205,1.5192,1.5214,1.5215,1.5215,1.5193,1.5192,1.5191,0,0,0,0,0,0,1.5128,1.5129,1.5147,1.5141,1.5144,1.5163,1.5165,1.5169,1.5171,1.5188,1.5192,1.5183,1.5204,1.5205,1.5202,1.5193,1.5215,1.5215,1.5193,1.5192,1.5191,1.5164,0,0,0,0,0,0,1.5127,1.5129,1.5124,1.5141,1.5144,1.5143,1.5164,1.5169,1.5172,1.5175,1.5188,1.5191,1.5204,1.5202,1.5202,1.5193,1.5215,1.5194,1.5193,1.5192,1.5166,1.5162,1.5159,0,0,0,0,0,1.5126,1.5115,1.5124,1.5126,1.5139,1.5143,1.5144,1.516,1.5171,1.5166,1.5178,1.5191,1.5194,1.5201,1.5202,1.5193,1.5195,1.5193,1.5192,1.5167,1.5163,1.5159,0,0,0,0,0,0,1.5095,1.5117,1.5127,1.5121,1.513,1.5147,1.5142,1.5155,1.516,1.5162,1.5181,1.5184,1.5179,1.5186,1.5193,1.5182,1.5196,1.5195,1.5177,1.5173,1.517,1.5168,1.5215,0,0,0,0,0,1.5088,1.509,1.5108,1.5101,1.5105,1.5123,1.5125,1.5137,1.5146,1.515,1.5161,1.5168,1.5171,1.5173,1.5176,1.5167,1.5171,1.5161,1.5158,1.5155,1.5153,1.515,1.5146,1.5186,1.5186,1.5186,0,0,1.5072,1.5084,1.5084,1.5095,1.5103,1.5105,1.5126,1.5126,1.5127,1.5149,1.5148,1.5156,1.5166,1.516,1.5158,1.5166,1.5143,1.5153,1.5151,1.5151,1.5148,1.5144,1.5141,1.5185,1.5185,1.5185,0,0,1.5044,1.5054,1.5049,1.5057,1.507,1.5082,1.5081,1.5097,1.5104,1.5103,1.512,1.5121,1.5126,1.5133,1.5137,1.5113,1.5126,1.5114,1.5096,1.5092,1.5089,1.5086,1.5078,1.5075,1.5112,1.5112,1.5112,0,1.5023,1.5026,1.5045,1.5044,1.5049,1.5071,1.5067,1.5074,1.5086,1.5089,1.5097,1.5105,1.5113,1.5109,1.5104,1.5106,1.5105,1.5112,1.5088,1.5086,1.5083,1.5076,1.5073,1.5111,1.5111,1.5111,1.5111,0,1.4999,1.5001,1.4996,1.5009,1.5013,1.5011,1.5029,1.5031,1.5043,1.5054,1.5053,1.5064,1.507,1.507,1.5081,1.5069,1.5073,1.5085,1.51,1.5078,1.5071,1.5068,1.5108,1.5109,1.5109,1.511,0,0,1.4951,1.4976,1.4974,1.4981,1.4997,1.4999,1.4998,1.5005,1.5007,1.5015,1.5014,1.5018,1.503,1.5034,1.5046,1.5043,1.5025,1.5055,1.5056,1.5049,1.5012,1.5003,1.4999,1.5034,1.5033,1.5033,1.5011,0,1.4926,1.4926,1.4944,1.4939,1.4941,1.4963,1.4962,1.4972,1.4983,1.4986,1.4997,1.5,1.5015,1.5018,1.5016,1.5027,1.5017,1.5029,1.5033,1.5033,1.5029,1.4996,1.4986,1.4965,1.5009,1.5008,1.5008,0,1.4897,1.4906,1.4901,1.4919,1.492,1.4919,1.4928,1.4931,1.4943,1.4951,1.4957,1.4972,1.4971,1.4986,1.4986,1.4994,1.4996,1.5002,1.5002,1.5003,1.5019,1.4996,1.4959,1.4956,1.5004,1.5004,1.5005,0,1.4863,1.4873,1.4872,1.4877,1.4898,1.4896,1.4905,1.4917,1.4921,1.4929,1.4932,1.4939,1.4943,1.4948,1.4964,1.4973,1.4962,1.4978,1.4969,1.4968,1.4965,1.4965,1.4928,1.4967,1.4967,1.4967,1.4967,0,1.4833,1.483,1.4857,1.4856,1.4853,1.4874,1.487,1.488,1.4891,1.4893,1.4912,1.4913,1.4934,1.4937,1.4949,1.4948,1.4949,1.4956,1.4959,1.4954,1.4953,1.4956,1.4957,1.4966,1.4966,1.4966,1.4967,0,1.4794,1.4813,1.4813,1.4833,1.4838,1.4835,1.4852,1.4852,1.4865,1.4866,1.4868,1.4887,1.4892,1.4909,1.4917,1.4926,1.492,1.4927,1.4917,1.4919,1.4909,1.4909,1.4872,1.4868,1.4909,1.4908,1.4908,0,1.4774,1.4772,1.4793,1.4796,1.4804,1.4808,1.4813,1.4833,1.4837,1.4851,1.485,1.4856,1.4863,1.487,1.4884,1.4891,1.4898,1.4884,1.4899,1.4894,1.4898,1.4898,1.4898,1.4881,1.488,1.488,1.4879,0,1.4737,1.4746,1.4753,1.4763,1.4768,1.4777,1.4786,1.4787,1.481,1.4814,1.482,1.4825,1.4834,1.4841,1.485,1.4859,1.4873,1.4875,1.4873,1.4868,1.4862,1.4866,1.4908,1.4875,1.4876,1.4876,1.4876,1.4877,1.4707,1.4706,1.4721,1.4728,1.4738,1.4747,1.4748,1.4762,1.4768,1.4778,1.4789,1.4794,1.4807,1.4821,1.4829,1.4832,1.484,1.4837,1.4837,1.4836,1.4833,1.4862,1.4834,1.4834,1.4834,1.4834,1.4835,0,1.4671,1.4682,1.4688,1.4702,1.4707,1.4722,1.4733,1.4737,1.4741,1.4752,1.4759,1.4766,1.4773,1.4788,1.4796,1.4796,1.4803,1.4798,1.4798,1.48,1.4826,1.4827,1.4792,1.4792,1.4792,1.4792,1.4792,1.4792,1.4652,1.4653,1.4665,1.467,1.4681,1.4687,1.4693,1.4701,1.471,1.4718,1.4724,1.4735,1.4748,1.4757,1.4764,1.4768,1.477,1.4763,1.477,1.4794,1.4798,1.4801,1.4802,1.4763,1.4763,1.4743,1.4743,1.4743]}]]